Volver al catálogo

COSMOS 1680

ActivoNavegaciónLEO
NORAD 16011·PAYLOAD·🇷🇺 Russia

Lanzado Sep 4, 1985 desde Plesetsk Cosmodrome

Loading…

Próximos Pases (próximas 24 horas)

TLE

ActualizadoSource: Space-Track

Época: Sep 14, 2026, 21:34 UTC

1 16011U 85079A   26257.89887807  .00000089  00000-0  41185-4 0  9995
2 16011  74.0541 160.7838 0015775 309.4400  50.5355 14.34179574144669

Sigue COSMOS 1680 en tiempo real con AllMySat

Download on the App Store